Year,Month,Day,Hour,Minute,Value (Times are PST for temperature in C)
2014,07,14,00,00,15.80
2014,07,14,00,01,15.80
2014,07,14,00,02,15.80
2014,07,14,00,03,15.80
2014,07,14,00,04,15.70
2014,07,14,00,05,15.70
2014,07,14,00,06,15.70
2014,07,14,00,07,15.70
2014,07,14,00,08,15.70
2014,07,14,00,09,15.70
2014,07,14,00,10,15.70
2014,07,14,00,11,15.60
2014,07,14,00,12,15.60
2014,07,14,00,13,15.60
2014,07,14,00,14,15.60
2014,07,14,00,15,15.60
2014,07,14,00,16,15.60
2014,07,14,00,17,15.60
2014,07,14,00,18,15.60
2014,07,14,00,19,15.60
2014,07,14,00,20,15.60
2014,07,14,00,21,15.60
2014,07,14,00,22,15.60
2014,07,14,00,23,15.60
2014,07,14,00,24,15.60
2014,07,14,00,25,15.60
2014,07,14,00,26,15.60
2014,07,14,00,27,15.60
2014,07,14,00,28,15.60
2014,07,14,00,29,15.50
2014,07,14,00,30,15.50
2014,07,14,00,31,15.50
2014,07,14,00,32,15.50
2014,07,14,00,33,15.50
2014,07,14,00,34,15.50
2014,07,14,00,35,15.50
2014,07,14,00,36,15.50
2014,07,14,00,37,15.40
2014,07,14,00,38,15.40
2014,07,14,00,39,15.40
2014,07,14,00,40,15.40
2014,07,14,00,41,15.40
2014,07,14,00,42,15.40
2014,07,14,00,43,15.40
2014,07,14,00,44,15.40
2014,07,14,00,45,15.40
2014,07,14,00,46,15.40
2014,07,14,00,47,15.40
2014,07,14,00,48,15.40
2014,07,14,00,49,15.40
2014,07,14,00,50,15.40
2014,07,14,00,51,15.40
2014,07,14,00,52,15.40
2014,07,14,00,53,15.40
2014,07,14,00,54,15.50
2014,07,14,00,55,15.50
2014,07,14,00,56,15.50
2014,07,14,00,57,15.50
2014,07,14,00,58,15.50
2014,07,14,00,59,15.50
2014,07,14,01,00,15.50
2014,07,14,01,01,15.50
2014,07,14,01,02,15.50
2014,07,14,01,03,15.50
2014,07,14,01,04,15.60
2014,07,14,01,05,15.60
2014,07,14,01,06,15.60
2014,07,14,01,07,15.60
2014,07,14,01,08,15.60
2014,07,14,01,09,15.60
2014,07,14,01,10,15.60
2014,07,14,01,11,15.60
2014,07,14,01,12,15.70
2014,07,14,01,13,15.70
2014,07,14,01,14,15.70
2014,07,14,01,15,15.70
2014,07,14,01,16,15.70
2014,07,14,01,17,15.70
2014,07,14,01,18,15.70
2014,07,14,01,19,15.70
2014,07,14,01,20,15.70
2014,07,14,01,21,15.80
2014,07,14,01,22,15.80
2014,07,14,01,23,15.80
2014,07,14,01,24,15.80
2014,07,14,01,25,15.80
2014,07,14,01,26,15.80
2014,07,14,01,27,15.80
2014,07,14,01,28,15.90
2014,07,14,01,29,15.90
2014,07,14,01,30,15.90
2014,07,14,01,31,15.90
2014,07,14,01,32,16.00
2014,07,14,01,33,16.00
2014,07,14,01,34,16.00
2014,07,14,01,35,16.00
2014,07,14,01,36,16.00
2014,07,14,01,37,16.00
2014,07,14,01,38,16.00
2014,07,14,01,39,16.00
2014,07,14,01,40,16.00
2014,07,14,01,41,16.00
2014,07,14,01,42,16.00
2014,07,14,01,43,16.00
2014,07,14,01,44,16.10
2014,07,14,01,45,16.10
2014,07,14,01,46,16.10
2014,07,14,01,47,16.10
2014,07,14,01,48,16.10
2014,07,14,01,49,16.20
2014,07,14,01,50,16.20
2014,07,14,01,51,16.20
2014,07,14,01,52,16.20
2014,07,14,01,53,16.30
2014,07,14,01,54,16.30
2014,07,14,01,55,16.40
2014,07,14,01,56,16.40
2014,07,14,01,57,16.40
2014,07,14,01,58,16.50
2014,07,14,01,59,16.50
2014,07,14,02,00,16.60
2014,07,14,02,01,16.60
2014,07,14,02,02,16.60
2014,07,14,02,03,16.60
2014,07,14,02,04,16.70
2014,07,14,02,05,16.70
2014,07,14,02,06,16.80
2014,07,14,02,07,16.80
2014,07,14,02,08,16.90
2014,07,14,02,09,16.90
2014,07,14,02,10,17.00
2014,07,14,02,11,17.10
2014,07,14,02,12,17.10
2014,07,14,02,13,17.20
2014,07,14,02,14,17.20
2014,07,14,02,15,17.30
2014,07,14,02,16,17.30
2014,07,14,02,17,17.30
2014,07,14,02,18,17.30
2014,07,14,02,19,17.40
2014,07,14,02,20,17.40
2014,07,14,02,21,17.40
2014,07,14,02,22,17.40
2014,07,14,02,23,17.40
2014,07,14,02,24,17.40
2014,07,14,02,25,17.40
2014,07,14,02,26,17.40
2014,07,14,02,27,17.40
2014,07,14,02,28,17.40
2014,07,14,02,29,17.40
2014,07,14,02,30,17.40
2014,07,14,02,31,17.30
2014,07,14,02,32,17.30
2014,07,14,02,33,17.30
2014,07,14,02,34,17.30
2014,07,14,02,35,17.20
2014,07,14,02,36,17.20
2014,07,14,02,37,17.20
2014,07,14,02,38,17.20
2014,07,14,02,39,17.20
2014,07,14,02,40,17.20
2014,07,14,02,41,17.10
2014,07,14,02,42,17.10
2014,07,14,02,43,17.00
2014,07,14,02,44,17.00
2014,07,14,02,45,16.90
2014,07,14,02,46,16.90
2014,07,14,02,47,16.80
2014,07,14,02,48,16.80
2014,07,14,02,49,16.70
2014,07,14,02,50,16.70
2014,07,14,02,51,16.60
2014,07,14,02,52,16.60
2014,07,14,02,53,16.50
2014,07,14,02,54,16.50
2014,07,14,02,55,16.40
2014,07,14,02,56,16.30
2014,07,14,02,57,16.20
2014,07,14,02,58,16.10
2014,07,14,02,59,16.10
2014,07,14,03,00,16.00
2014,07,14,03,01,15.90
2014,07,14,03,02,15.80
2014,07,14,03,03,15.80
2014,07,14,03,04,15.70
2014,07,14,03,05,15.70
2014,07,14,03,06,15.60
2014,07,14,03,07,15.60
2014,07,14,03,08,15.60
2014,07,14,03,09,15.60
2014,07,14,03,10,15.50
2014,07,14,03,11,15.50
2014,07,14,03,12,15.50
2014,07,14,03,13,15.50
2014,07,14,03,14,15.50
2014,07,14,03,15,15.50
2014,07,14,03,16,15.40
2014,07,14,03,17,15.40
2014,07,14,03,18,15.40
2014,07,14,03,19,15.40
2014,07,14,03,20,15.40
2014,07,14,03,21,15.30
2014,07,14,03,22,15.30
2014,07,14,03,23,15.30
2014,07,14,03,24,15.30
2014,07,14,03,25,15.30
2014,07,14,03,26,15.30
2014,07,14,03,27,15.30
2014,07,14,03,28,15.30
2014,07,14,03,29,15.30
2014,07,14,03,30,15.30
2014,07,14,03,31,15.30
2014,07,14,03,32,15.30
2014,07,14,03,33,15.30
2014,07,14,03,34,15.30
2014,07,14,03,35,15.30
2014,07,14,03,36,15.30
2014,07,14,03,37,15.30
2014,07,14,03,38,15.30
2014,07,14,03,39,15.30
2014,07,14,03,40,15.30
2014,07,14,03,41,15.30
2014,07,14,03,42,15.30
2014,07,14,03,43,15.30
2014,07,14,03,44,15.30
2014,07,14,03,45,15.30
2014,07,14,03,46,15.30
2014,07,14,03,47,15.30
2014,07,14,03,48,15.30
2014,07,14,03,49,15.20
2014,07,14,03,50,15.20
2014,07,14,03,51,15.10
2014,07,14,03,52,15.10
2014,07,14,03,53,15.00
2014,07,14,03,54,15.00
2014,07,14,03,55,14.90
2014,07,14,03,56,14.90
2014,07,14,03,57,14.80
2014,07,14,03,58,14.80
2014,07,14,03,59,14.70
2014,07,14,04,00,14.70
2014,07,14,04,01,14.60
2014,07,14,04,02,14.50
2014,07,14,04,03,14.50
2014,07,14,04,04,14.40
2014,07,14,04,05,14.40
2014,07,14,04,06,14.40
2014,07,14,04,07,14.30
2014,07,14,04,08,14.30
2014,07,14,04,09,14.30
2014,07,14,04,10,14.30
2014,07,14,04,11,14.30
2014,07,14,04,12,14.30
2014,07,14,04,13,14.30
2014,07,14,04,14,14.30
2014,07,14,04,15,14.30
2014,07,14,04,16,14.30
2014,07,14,04,17,14.30
2014,07,14,04,18,14.30
2014,07,14,04,19,14.30
2014,07,14,04,20,14.30
2014,07,14,04,21,14.30
2014,07,14,04,22,14.30
2014,07,14,04,23,14.30
2014,07,14,04,24,14.30
2014,07,14,04,25,14.30
2014,07,14,04,26,14.30
2014,07,14,04,27,14.30
2014,07,14,04,28,14.30
2014,07,14,04,29,14.30
2014,07,14,04,30,14.30
2014,07,14,04,31,14.30
2014,07,14,04,32,14.20
2014,07,14,04,33,14.20
2014,07,14,04,34,14.20
2014,07,14,04,35,14.20
2014,07,14,04,36,14.20
2014,07,14,04,37,14.20
2014,07,14,04,38,14.20
2014,07,14,04,39,14.20
2014,07,14,04,40,14.20
2014,07,14,04,41,14.20
2014,07,14,04,42,14.20
2014,07,14,04,43,14.10
2014,07,14,04,44,14.10
2014,07,14,04,45,14.00
2014,07,14,04,46,14.00
2014,07,14,04,47,13.90
2014,07,14,04,48,13.90
2014,07,14,04,49,13.90
2014,07,14,04,50,13.80
2014,07,14,04,51,13.80
2014,07,14,04,52,13.80
2014,07,14,04,53,13.80
2014,07,14,04,54,13.80
2014,07,14,04,55,13.70
2014,07,14,04,56,13.70
2014,07,14,04,57,13.70
2014,07,14,04,58,13.60
2014,07,14,04,59,13.60
2014,07,14,05,00,13.60
2014,07,14,05,01,13.60
2014,07,14,05,02,13.50
2014,07,14,05,03,13.50
2014,07,14,05,04,13.50
2014,07,14,05,05,13.50
2014,07,14,05,06,13.40
2014,07,14,05,07,13.40
2014,07,14,05,08,13.40
2014,07,14,05,09,13.40
2014,07,14,05,10,13.40
2014,07,14,05,11,13.40
2014,07,14,05,12,13.40
2014,07,14,05,13,13.40
2014,07,14,05,14,13.30
2014,07,14,05,15,13.40
2014,07,14,05,16,13.40
2014,07,14,05,17,13.40
2014,07,14,05,18,13.40
2014,07,14,05,19,13.40
2014,07,14,05,20,13.40
2014,07,14,05,21,13.40
2014,07,14,05,22,13.50
2014,07,14,05,23,13.60
2014,07,14,05,24,13.60
2014,07,14,05,25,13.60
2014,07,14,05,26,13.70
2014,07,14,05,27,13.70
2014,07,14,05,28,13.70
2014,07,14,05,29,13.70
2014,07,14,05,30,13.70
2014,07,14,05,31,13.70
2014,07,14,05,32,13.60
2014,07,14,05,33,13.60
2014,07,14,05,34,13.60
2014,07,14,05,35,13.60
2014,07,14,05,36,13.50
2014,07,14,05,37,13.50
2014,07,14,05,38,13.50
2014,07,14,05,39,13.40
2014,07,14,05,40,13.40
2014,07,14,05,41,13.40
2014,07,14,05,42,13.40
2014,07,14,05,43,13.40
2014,07,14,05,44,13.40
2014,07,14,05,45,13.40
2014,07,14,05,46,13.40
2014,07,14,05,47,13.40
2014,07,14,05,48,13.40
2014,07,14,05,49,13.40
2014,07,14,05,50,13.50
2014,07,14,05,51,13.50
2014,07,14,05,52,13.60
2014,07,14,05,53,13.60
2014,07,14,05,54,13.60
2014,07,14,05,55,13.70
2014,07,14,05,56,13.70
2014,07,14,05,57,13.80
2014,07,14,05,58,13.80
2014,07,14,05,59,13.80
2014,07,14,06,00,13.80
2014,07,14,06,01,13.90
2014,07,14,06,02,13.90
2014,07,14,06,03,13.90
2014,07,14,06,04,14.00
2014,07,14,06,05,14.00
2014,07,14,06,06,14.00
2014,07,14,06,07,14.10
2014,07,14,06,08,14.10
2014,07,14,06,09,14.10
2014,07,14,06,10,14.10
2014,07,14,06,11,14.10
2014,07,14,06,12,14.10
2014,07,14,06,13,14.10
2014,07,14,06,14,14.20
2014,07,14,06,15,14.20
2014,07,14,06,16,14.20
2014,07,14,06,17,14.20
2014,07,14,06,18,14.20
2014,07,14,06,19,14.30
2014,07,14,06,20,14.30
2014,07,14,06,21,14.30
2014,07,14,06,22,14.40
2014,07,14,06,23,14.40
2014,07,14,06,24,14.50
2014,07,14,06,25,14.50
2014,07,14,06,26,14.50
2014,07,14,06,27,14.60
2014,07,14,06,28,14.60
2014,07,14,06,29,14.60
2014,07,14,06,30,14.70
2014,07,14,06,31,14.70
2014,07,14,06,32,14.70
2014,07,14,06,33,14.80
2014,07,14,06,34,14.80
2014,07,14,06,35,14.80
2014,07,14,06,36,14.80
2014,07,14,06,37,14.90
2014,07,14,06,38,14.90
2014,07,14,06,39,15.00
2014,07,14,06,40,15.00
2014,07,14,06,41,15.10
2014,07,14,06,42,15.10
2014,07,14,06,43,15.10
2014,07,14,06,44,15.10
2014,07,14,06,45,15.10
2014,07,14,06,46,15.20
2014,07,14,06,47,15.20
2014,07,14,06,48,15.20
2014,07,14,06,49,15.20
2014,07,14,06,50,15.20
2014,07,14,06,51,15.30
2014,07,14,06,52,15.30
2014,07,14,06,53,15.30
2014,07,14,06,54,15.30
2014,07,14,06,55,15.40
2014,07,14,06,56,15.40
2014,07,14,06,57,15.40
2014,07,14,06,58,15.50
2014,07,14,06,59,15.50
2014,07,14,07,00,15.60
2014,07,14,07,01,15.60
2014,07,14,07,02,15.70
2014,07,14,07,03,15.80
2014,07,14,07,04,15.80
2014,07,14,07,05,15.90
2014,07,14,07,06,15.90
2014,07,14,07,07,16.00
2014,07,14,07,08,16.10
2014,07,14,07,09,16.10
2014,07,14,07,10,16.20
2014,07,14,07,11,16.20
2014,07,14,07,12,16.30
2014,07,14,07,13,16.30
2014,07,14,07,14,16.40
2014,07,14,07,15,16.50
2014,07,14,07,16,16.50
2014,07,14,07,17,16.60
2014,07,14,07,18,16.70
2014,07,14,07,19,16.80
2014,07,14,07,20,16.80
2014,07,14,07,21,16.90
2014,07,14,07,22,17.00
2014,07,14,07,23,17.00
2014,07,14,07,24,17.10
2014,07,14,07,25,17.10
2014,07,14,07,26,17.20
2014,07,14,07,27,17.20
2014,07,14,07,28,17.30
2014,07,14,07,29,17.30
2014,07,14,07,30,17.40
2014,07,14,07,31,17.40
2014,07,14,07,32,17.40
2014,07,14,07,33,17.50
2014,07,14,07,34,17.50
2014,07,14,07,35,17.60
2014,07,14,07,36,17.60
2014,07,14,07,37,17.60
2014,07,14,07,38,17.60
2014,07,14,07,39,17.70
2014,07,14,07,40,17.70
2014,07,14,07,41,17.70
2014,07,14,07,42,17.70
2014,07,14,07,43,17.70
2014,07,14,07,44,17.80
2014,07,14,07,45,17.80
2014,07,14,07,46,17.80
2014,07,14,07,47,17.80
2014,07,14,07,48,17.80
2014,07,14,07,49,17.90
2014,07,14,07,50,17.90
2014,07,14,07,51,18.00
2014,07,14,07,52,18.00
2014,07,14,07,53,18.10
2014,07,14,07,54,18.10
2014,07,14,07,55,18.20
2014,07,14,07,56,18.20
2014,07,14,07,57,18.30
2014,07,14,07,58,18.30
2014,07,14,07,59,18.30
2014,07,14,08,00,18.30
2014,07,14,08,01,18.40
2014,07,14,08,02,18.50
2014,07,14,08,03,18.50
2014,07,14,08,04,18.60
2014,07,14,08,05,18.60
2014,07,14,08,06,18.70
2014,07,14,08,07,18.70
2014,07,14,08,08,18.70
2014,07,14,08,09,18.80
2014,07,14,08,10,18.80
2014,07,14,08,11,18.80
2014,07,14,08,12,18.80
2014,07,14,08,13,18.90
2014,07,14,08,14,18.90
2014,07,14,08,15,19.00
2014,07,14,08,16,19.10
2014,07,14,08,17,19.10
2014,07,14,08,18,19.20
2014,07,14,08,19,19.20
2014,07,14,08,20,19.30
2014,07,14,08,21,19.40
2014,07,14,08,22,19.40
2014,07,14,08,23,19.50
2014,07,14,08,24,19.60
2014,07,14,08,25,19.60
2014,07,14,08,26,19.70
2014,07,14,08,27,19.70
2014,07,14,08,28,19.80
2014,07,14,08,29,19.80
2014,07,14,08,30,19.80
2014,07,14,08,31,19.80
2014,07,14,08,32,19.80
2014,07,14,08,33,19.70
2014,07,14,08,34,19.70
2014,07,14,08,35,19.70
2014,07,14,08,36,19.80
2014,07,14,08,37,19.80
2014,07,14,08,38,19.80
2014,07,14,08,39,19.90
2014,07,14,08,40,19.90
2014,07,14,08,41,19.90
2014,07,14,08,42,19.90
2014,07,14,08,43,19.90
2014,07,14,08,44,19.90
2014,07,14,08,45,19.80
2014,07,14,08,46,19.80
2014,07,14,08,47,19.80
2014,07,14,08,48,19.80
2014,07,14,08,49,19.80
2014,07,14,08,50,19.70
2014,07,14,08,51,19.70
2014,07,14,08,52,19.70
2014,07,14,08,53,19.70
2014,07,14,08,54,19.70
2014,07,14,08,55,19.80
2014,07,14,08,56,19.80
2014,07,14,08,57,19.80
2014,07,14,08,58,19.90
2014,07,14,08,59,19.90
2014,07,14,09,00,20.00
2014,07,14,09,01,20.00
2014,07,14,09,02,20.10
2014,07,14,09,03,20.10
2014,07,14,09,04,20.20
2014,07,14,09,05,20.30
2014,07,14,09,06,20.30
2014,07,14,09,07,20.40
2014,07,14,09,08,20.50
2014,07,14,09,09,20.50
2014,07,14,09,10,20.60
2014,07,14,09,11,20.70
2014,07,14,09,12,20.80
2014,07,14,09,13,20.80
2014,07,14,09,14,20.90
2014,07,14,09,15,20.90
2014,07,14,09,16,21.00
2014,07,14,09,17,21.00
2014,07,14,09,18,21.10
2014,07,14,09,19,21.10
2014,07,14,09,20,21.10
2014,07,14,09,21,21.20
2014,07,14,09,22,21.20
2014,07,14,09,23,21.20
2014,07,14,09,24,21.20
2014,07,14,09,25,21.30
2014,07,14,09,26,21.30
2014,07,14,09,27,21.30
2014,07,14,09,28,21.30
2014,07,14,09,29,21.20
2014,07,14,09,30,21.20
2014,07,14,09,31,21.20
2014,07,14,09,32,21.10
2014,07,14,09,33,21.10
2014,07,14,09,34,21.10
2014,07,14,09,35,21.00
2014,07,14,09,36,21.00
2014,07,14,09,37,21.00
2014,07,14,09,38,21.10
2014,07,14,09,39,21.10
2014,07,14,09,40,21.20
2014,07,14,09,41,21.20
2014,07,14,09,42,21.30
2014,07,14,09,43,21.30
2014,07,14,09,44,21.40
2014,07,14,09,45,21.40
2014,07,14,09,46,21.50
2014,07,14,09,47,21.50
2014,07,14,09,48,21.60
2014,07,14,09,49,21.70
2014,07,14,09,50,21.80
2014,07,14,09,51,21.90
2014,07,14,09,52,22.00
2014,07,14,09,53,22.00
2014,07,14,09,54,22.10
2014,07,14,09,55,22.20
2014,07,14,09,56,22.20
2014,07,14,09,57,22.30
2014,07,14,09,58,22.30
2014,07,14,09,59,22.20
2014,07,14,10,00,22.20
2014,07,14,10,01,22.10
2014,07,14,10,02,22.10
2014,07,14,10,03,22.00
2014,07,14,10,04,21.80
2014,07,14,10,05,21.50
2014,07,14,10,06,21.20
2014,07,14,10,07,21.00
2014,07,14,10,08,20.80
2014,07,14,10,09,20.70
2014,07,14,10,10,20.50
2014,07,14,10,11,20.40
2014,07,14,10,12,20.40
2014,07,14,10,13,20.30
2014,07,14,10,14,20.30
2014,07,14,10,15,20.30
2014,07,14,10,16,20.30
2014,07,14,10,17,20.30
2014,07,14,10,18,20.30
2014,07,14,10,19,20.30
2014,07,14,10,20,20.30
2014,07,14,10,21,20.30
2014,07,14,10,22,20.30
2014,07,14,10,23,20.30
2014,07,14,10,24,20.30
2014,07,14,10,25,20.40
2014,07,14,10,26,20.40
2014,07,14,10,27,20.50
2014,07,14,10,28,20.50
2014,07,14,10,29,20.60
2014,07,14,10,30,20.70
2014,07,14,10,31,20.70
2014,07,14,10,32,20.70
2014,07,14,10,33,20.80
2014,07,14,10,34,20.80
2014,07,14,10,35,20.90
2014,07,14,10,36,21.00
2014,07,14,10,37,21.10
2014,07,14,10,38,21.20
2014,07,14,10,39,21.30
2014,07,14,10,40,21.40
2014,07,14,10,41,21.50
2014,07,14,10,42,21.70
2014,07,14,10,43,21.80
2014,07,14,10,44,21.80
2014,07,14,10,45,21.80
2014,07,14,10,46,21.80
2014,07,14,10,47,21.70
2014,07,14,10,48,21.70
2014,07,14,10,49,21.60
2014,07,14,10,50,21.60
2014,07,14,10,51,21.60
2014,07,14,10,52,21.60
2014,07,14,10,53,21.60
2014,07,14,10,54,21.60
2014,07,14,10,55,21.60
2014,07,14,10,56,21.60
2014,07,14,10,57,21.70
2014,07,14,10,58,21.70
2014,07,14,10,59,21.80
2014,07,14,11,00,21.80
2014,07,14,11,01,21.80
2014,07,14,11,02,21.90
2014,07,14,11,03,21.90
2014,07,14,11,04,21.90
2014,07,14,11,05,21.90
2014,07,14,11,06,21.90
2014,07,14,11,07,22.00
2014,07,14,11,08,22.00
2014,07,14,11,09,22.00
2014,07,14,11,10,22.10
2014,07,14,11,11,22.10
2014,07,14,11,12,22.10
2014,07,14,11,13,22.10
2014,07,14,11,14,22.10
2014,07,14,11,15,22.10
2014,07,14,11,16,22.10
2014,07,14,11,17,22.10
2014,07,14,11,18,22.20
2014,07,14,11,19,22.20
2014,07,14,11,20,22.30
2014,07,14,11,21,22.30
2014,07,14,11,22,22.30
2014,07,14,11,23,22.30
2014,07,14,11,24,22.30
2014,07,14,11,25,22.30
2014,07,14,11,26,22.30
2014,07,14,11,27,22.30
2014,07,14,11,28,22.30
2014,07,14,11,29,22.30
2014,07,14,11,30,22.30
2014,07,14,11,31,22.30
2014,07,14,11,32,22.40
2014,07,14,11,33,22.40
2014,07,14,11,34,22.40
2014,07,14,11,35,22.50
2014,07,14,11,36,22.60
2014,07,14,11,37,22.60
2014,07,14,11,38,22.60
2014,07,14,11,39,22.70
2014,07,14,11,40,22.70
2014,07,14,11,41,22.70
2014,07,14,11,42,22.80
2014,07,14,11,43,22.80
2014,07,14,11,44,22.90
2014,07,14,11,45,22.90
2014,07,14,11,46,23.00
2014,07,14,11,47,23.00
2014,07,14,11,48,23.00
2014,07,14,11,49,23.00
2014,07,14,11,50,23.10
2014,07,14,11,51,23.10
2014,07,14,11,52,23.10
2014,07,14,11,53,23.00
2014,07,14,11,54,23.00
2014,07,14,11,55,22.90
2014,07,14,11,56,22.90
2014,07,14,11,57,22.90
2014,07,14,11,58,22.90
2014,07,14,11,59,22.90
2014,07,14,12,00,22.90
2014,07,14,12,01,22.90
2014,07,14,12,02,22.70
2014,07,14,12,03,22.60
2014,07,14,12,04,22.40
2014,07,14,12,05,22.30
2014,07,14,12,06,22.20
2014,07,14,12,07,22.00
2014,07,14,12,08,21.80
2014,07,14,12,09,21.70
2014,07,14,12,10,21.60
2014,07,14,12,11,21.50
2014,07,14,12,12,21.50
2014,07,14,12,13,21.40
2014,07,14,12,14,21.40
2014,07,14,12,15,21.40
2014,07,14,12,16,21.40
2014,07,14,12,17,21.40
2014,07,14,12,18,21.40
2014,07,14,12,19,21.40
2014,07,14,12,20,21.50
2014,07,14,12,21,21.50
2014,07,14,12,22,21.60
2014,07,14,12,23,21.60
2014,07,14,12,24,21.60
2014,07,14,12,25,21.60
2014,07,14,12,26,21.50
2014,07,14,12,27,21.40
2014,07,14,12,28,21.40
2014,07,14,12,29,21.30
2014,07,14,12,30,21.20
2014,07,14,12,31,21.10
2014,07,14,12,32,21.10
2014,07,14,12,33,21.10
2014,07,14,12,34,21.10
2014,07,14,12,35,21.10
2014,07,14,12,36,21.10
2014,07,14,12,37,21.20
2014,07,14,12,38,21.20
2014,07,14,12,39,21.20
2014,07,14,12,40,21.20
2014,07,14,12,41,21.20
2014,07,14,12,42,21.10
2014,07,14,12,43,21.10
2014,07,14,12,44,21.00
2014,07,14,12,45,21.00
2014,07,14,12,46,21.00
2014,07,14,12,47,21.00
2014,07,14,12,48,21.10
2014,07,14,12,49,21.00
2014,07,14,12,50,21.10
2014,07,14,12,51,21.10
2014,07,14,12,52,21.10
2014,07,14,12,53,21.20
2014,07,14,12,54,21.30
2014,07,14,12,55,21.40
2014,07,14,12,56,21.40
2014,07,14,12,57,21.50
2014,07,14,12,58,21.60
2014,07,14,12,59,21.60
2014,07,14,13,00,21.60
2014,07,14,13,01,21.60
2014,07,14,13,02,21.60
2014,07,14,13,03,21.70
2014,07,14,13,04,21.70
2014,07,14,13,05,21.80
2014,07,14,13,06,21.80
2014,07,14,13,07,21.90
2014,07,14,13,08,22.00
2014,07,14,13,09,22.00
2014,07,14,13,10,22.10
2014,07,14,13,11,22.20
2014,07,14,13,12,22.20
2014,07,14,13,13,22.20
2014,07,14,13,14,22.10
2014,07,14,13,15,22.10
2014,07,14,13,16,22.00
2014,07,14,13,17,21.90
2014,07,14,13,18,21.80
2014,07,14,13,19,21.60
2014,07,14,13,20,21.50
2014,07,14,13,21,21.50
2014,07,14,13,22,21.40
2014,07,14,13,23,21.40
2014,07,14,13,24,21.40
2014,07,14,13,25,21.40
2014,07,14,13,26,21.40
2014,07,14,13,27,21.50
2014,07,14,13,28,21.50
2014,07,14,13,29,21.60
2014,07,14,13,30,21.60
2014,07,14,13,31,21.60
2014,07,14,13,32,21.60
2014,07,14,13,33,21.60
2014,07,14,13,34,21.60
2014,07,14,13,35,21.70
2014,07,14,13,36,21.70
2014,07,14,13,37,21.70
2014,07,14,13,38,21.70
2014,07,14,13,39,21.70
2014,07,14,13,40,21.70
2014,07,14,13,41,21.70
2014,07,14,13,42,21.70
2014,07,14,13,43,21.70
2014,07,14,13,44,21.70
2014,07,14,13,45,21.70
2014,07,14,13,46,21.70
2014,07,14,13,47,21.70
2014,07,14,13,48,21.70
2014,07,14,13,49,21.80
2014,07,14,13,50,21.80
2014,07,14,13,51,21.90
2014,07,14,13,52,21.90
2014,07,14,13,53,22.10
2014,07,14,13,54,22.20
2014,07,14,13,55,22.20
2014,07,14,13,56,22.20
2014,07,14,13,57,22.30
2014,07,14,13,58,22.30
2014,07,14,13,59,22.40
2014,07,14,14,00,22.40
2014,07,14,14,01,22.40
2014,07,14,14,02,22.40
2014,07,14,14,03,22.50
2014,07,14,14,04,22.50
2014,07,14,14,05,22.50
2014,07,14,14,06,22.60
2014,07,14,14,07,22.70
2014,07,14,14,08,22.80
2014,07,14,14,09,22.80
2014,07,14,14,10,22.80
2014,07,14,14,11,22.90
2014,07,14,14,12,22.90
2014,07,14,14,13,22.90
2014,07,14,14,14,23.00
2014,07,14,14,15,23.10
2014,07,14,14,16,23.10
2014,07,14,14,17,23.20
2014,07,14,14,18,23.30
2014,07,14,14,19,23.50
2014,07,14,14,20,23.80
2014,07,14,14,21,23.90
2014,07,14,14,22,24.10
2014,07,14,14,23,24.20
2014,07,14,14,24,24.30
2014,07,14,14,25,24.40
2014,07,14,14,26,24.50
2014,07,14,14,27,24.70
2014,07,14,14,28,24.80
2014,07,14,14,29,24.80
2014,07,14,14,30,24.90
2014,07,14,14,31,24.90
2014,07,14,14,32,24.90
2014,07,14,14,33,24.90
2014,07,14,14,34,24.90
2014,07,14,14,35,24.90
2014,07,14,14,36,25.00
2014,07,14,14,37,25.00
2014,07,14,14,38,25.10
2014,07,14,14,39,25.10
2014,07,14,14,40,25.20
2014,07,14,14,41,25.20
2014,07,14,14,42,25.30
2014,07,14,14,43,25.30
2014,07,14,14,44,25.30
2014,07,14,14,45,25.30
2014,07,14,14,46,25.20
2014,07,14,14,47,25.20
2014,07,14,14,48,25.20
2014,07,14,14,49,25.20
2014,07,14,14,50,25.20
2014,07,14,14,51,25.20
2014,07,14,14,52,25.20
2014,07,14,14,53,25.20
2014,07,14,14,54,25.30
2014,07,14,14,55,25.30
2014,07,14,14,56,25.30
2014,07,14,14,57,25.20
2014,07,14,14,58,25.20
2014,07,14,14,59,25.20
2014,07,14,15,00,25.20
2014,07,14,15,01,25.10
2014,07,14,15,02,25.20
2014,07,14,15,03,25.20
2014,07,14,15,04,25.10
2014,07,14,15,05,25.10
2014,07,14,15,06,25.10
2014,07,14,15,07,25.20
2014,07,14,15,08,25.20
2014,07,14,15,09,25.20
2014,07,14,15,10,25.10
2014,07,14,15,11,25.20
2014,07,14,15,12,25.20
2014,07,14,15,13,25.30
2014,07,14,15,14,25.30
2014,07,14,15,15,25.40
2014,07,14,15,16,25.50
2014,07,14,15,17,25.50
2014,07,14,15,18,25.60
2014,07,14,15,19,25.70
2014,07,14,15,20,25.70
2014,07,14,15,21,25.70
2014,07,14,15,22,25.70
2014,07,14,15,23,25.70
2014,07,14,15,24,25.70
2014,07,14,15,25,25.70
2014,07,14,15,26,25.70
2014,07,14,15,27,25.70
2014,07,14,15,28,25.70
2014,07,14,15,29,25.70
2014,07,14,15,30,25.80
2014,07,14,15,31,25.80
2014,07,14,15,32,25.80
2014,07,14,15,33,25.80
2014,07,14,15,34,25.60
2014,07,14,15,35,25.50
2014,07,14,15,36,25.50
2014,07,14,15,37,25.40
2014,07,14,15,38,25.40
2014,07,14,15,39,25.40
2014,07,14,15,40,25.40
2014,07,14,15,41,25.40
2014,07,14,15,42,25.40
2014,07,14,15,43,25.40
2014,07,14,15,44,25.40
2014,07,14,15,45,25.40
2014,07,14,15,46,25.40
2014,07,14,15,47,25.40
2014,07,14,15,48,25.40
2014,07,14,15,49,25.40
2014,07,14,15,50,25.30
2014,07,14,15,51,25.30
2014,07,14,15,52,25.20
2014,07,14,15,53,25.20
2014,07,14,15,54,25.20
2014,07,14,15,55,25.30
2014,07,14,15,56,25.30
2014,07,14,15,57,25.40
2014,07,14,15,58,25.40
2014,07,14,15,59,25.50
2014,07,14,16,00,25.60
2014,07,14,16,01,25.60
2014,07,14,16,02,25.60
2014,07,14,16,03,25.70
2014,07,14,16,04,25.80
2014,07,14,16,05,25.90
2014,07,14,16,06,26.00
2014,07,14,16,07,26.10
2014,07,14,16,08,26.20
2014,07,14,16,09,26.20
2014,07,14,16,10,26.30
2014,07,14,16,11,26.30
2014,07,14,16,12,26.40
2014,07,14,16,13,26.40
2014,07,14,16,14,26.40
2014,07,14,16,15,26.40
2014,07,14,16,16,26.40
2014,07,14,16,17,26.40
2014,07,14,16,18,26.30
2014,07,14,16,19,26.40
2014,07,14,16,20,26.40
2014,07,14,16,21,26.40
2014,07,14,16,22,26.40
2014,07,14,16,23,26.40
2014,07,14,16,24,26.40
2014,07,14,16,25,26.40
2014,07,14,16,26,26.40
2014,07,14,16,27,26.40
2014,07,14,16,28,26.40
2014,07,14,16,29,26.40
2014,07,14,16,30,26.40
2014,07,14,16,31,26.30
2014,07,14,16,32,26.30
2014,07,14,16,33,26.40
2014,07,14,16,34,26.40
2014,07,14,16,35,26.30
2014,07,14,16,36,26.30
2014,07,14,16,37,26.20
2014,07,14,16,38,26.10
2014,07,14,16,39,26.10
2014,07,14,16,40,26.00
2014,07,14,16,41,25.90
2014,07,14,16,42,25.90
2014,07,14,16,43,25.80
2014,07,14,16,44,25.80
2014,07,14,16,45,25.80
2014,07,14,16,46,25.80
2014,07,14,16,47,25.90
2014,07,14,16,48,25.90
2014,07,14,16,49,25.90
2014,07,14,16,50,25.90
2014,07,14,16,51,25.90
2014,07,14,16,52,25.90
2014,07,14,16,53,25.90
2014,07,14,16,54,25.80
2014,07,14,16,55,25.80
2014,07,14,16,56,25.70
2014,07,14,16,57,25.60
2014,07,14,16,58,25.50
2014,07,14,16,59,25.50
2014,07,14,17,00,25.60
2014,07,14,17,01,25.60
2014,07,14,17,02,25.50
2014,07,14,17,03,25.50
2014,07,14,17,04,25.50
2014,07,14,17,05,25.60
2014,07,14,17,06,25.50
2014,07,14,17,07,25.50
2014,07,14,17,08,25.50
2014,07,14,17,09,25.50
2014,07,14,17,10,25.40
2014,07,14,17,11,25.40
2014,07,14,17,12,25.40
2014,07,14,17,13,25.30
2014,07,14,17,14,25.30
2014,07,14,17,15,25.30
2014,07,14,17,16,25.30
2014,07,14,17,17,25.30
2014,07,14,17,18,25.30
2014,07,14,17,19,25.30